Chatham, MA

1:58 PM EDT on July 23, 2017 (GMT -0400)
Chatham Municipal

Weather History for KCQX - May, 2013

Change the Weather History Date:

Thursday, May 9, 2013

  Actual Average Record
Temperature  
Mean Temperature 58 °F -  
Max Temperature 64 °F 58 °F 70 °F (2000)
Min Temperature 51 °F 44 °F 37 °F (2017)
Degree Days  
Heating Degree Days 8    
Growing Degree Days 8 (Base 50)    
Moisture  
Dew Point 56 °F    
Average Humidity 95    
Maximum Humidity 100    
Minimum Humidity 82    
Precipitation  
Precipitation 0.21 in - - ()
Sea Level Pressure  
Sea Level Pressure 29.98 in    
Wind  
Wind Speed 4 mph (South)    
Max Wind Speed 9 mph    
Max Gust Speed 16 mph    
Visibility 4 miles    
Events Fog , Rain , Thunderstorm    
Averages and records for this station are not official NWS values.
T = Trace of Precipitation, MM = Missing Value Source: NWS Daily Summary

Daily Weather History Graph

Daily Weather History Graph

Search for Another Location

Airport or City:

Trip Planner

Search our weather history database for the weather conditions in past years. The results will help you decide how hot, cold, wet, or windy it might be!

Date:

Astronomy

May. 09, 2013 Rise Set
Actual Time 5:26 AM EDT 7:46 PM EDT
Civil Twilight 4:55 AM EDT 8:18 PM EDT
Nautical Twilight 4:16 AM EDT 8:56 PM EDT
Astronomical Twilight 3:34 AM EDT 9:39 PM EDT
Moon 5:09 AM EDT (5/9) 7:38 PM EDT (5/9)
Length of Visible Light 15h 22m
Length of Day
14h 20m
Waning Crescent, 0% of the Moon is Illuminated
May 9
Waning Crescent
May 9
New
May 18
First Quarter
May 25
Full
May 31
Last Quarter

Hourly Weather History & Observations

Time (EDT) Temp. Dew Point Humidity Pressure Visibility Wind Dir Wind Speed Gust Speed Precip Events Conditions
12:25 AM 53.6 °F 53.6 °F 100% 30.06 in 0.8 mi South 4.6 mph - 0.00 in   Mist
12:52 AM 55.0 °F 55.0 °F 100% 30.06 in 0.8 mi SSE 5.8 mph - 0.00 in   Mist
1:44 AM 53.6 °F 53.6 °F 100% 30.04 in 0.2 mi Variable 3.5 mph - 0.01 in Fog Fog
1:52 AM 53.1 °F 53.1 °F 100% 30.04 in 0.2 mi Calm Calm - 0.01 in Fog Fog
2:08 AM 53.6 °F 53.6 °F 100% 30.04 in 0.5 mi Calm Calm - N/A Fog Fog
3:23 AM 53.6 °F 53.6 °F 100% 30.02 in 1.0 mi ESE 3.5 mph - 0.00 in Rain Light Rain
3:50 AM 53.6 °F 53.6 °F 100% 30.01 in 0.8 mi SSE 4.6 mph - 0.00 in   Mist
3:52 AM 53.1 °F 53.1 °F 100% 30.02 in 0.8 mi South 4.6 mph - 0.00 in   Mist
4:21 AM 53.6 °F 53.6 °F 100% 30.01 in 0.2 mi Variable 4.6 mph - N/A Fog Fog
4:52 AM 53.1 °F 53.1 °F 100% 30.01 in 0.2 mi Calm Calm - N/A Fog Fog
5:52 AM 53.1 °F 53.1 °F 100% 30.00 in 0.2 mi ESE 3.5 mph - N/A Fog Fog
6:52 AM 53.1 °F 53.1 °F 100% 30.02 in 0.2 mi Variable 4.6 mph - N/A Fog Fog
7:52 AM 54.0 °F 54.0 °F 100% 30.01 in 0.2 mi SE 3.5 mph - N/A Fog Fog
8:21 AM 55.4 °F 55.4 °F 100% 30.01 in 0.5 mi South 3.5 mph - N/A Fog Fog
8:38 AM 55.4 °F 55.4 °F 100% 30.00 in 0.2 mi Calm Calm - N/A Fog Fog
8:52 AM 57.0 °F 57.0 °F 100% 30.00 in 0.2 mi Calm Calm - N/A Fog Fog
8:59 AM 57.2 °F 57.2 °F 100% 30.00 in 0.5 mi SSW 4.6 mph - N/A Fog Fog
9:08 AM 57.2 °F 57.2 °F 100% 29.99 in 0.2 mi SSW 3.5 mph - N/A Fog Fog
9:20 AM 57.2 °F 57.2 °F 100% 29.99 in 0.5 mi South 4.6 mph - N/A Fog Fog
9:30 AM 59.0 °F 59.0 °F 100% 29.99 in 2.0 mi Calm Calm - N/A   Overcast
9:38 AM 60.8 °F 59.0 °F 94% 29.99 in 10.0 mi Calm Calm - N/A   Overcast
9:52 AM 62.1 °F 61.0 °F 96% 30.00 in 10.0 mi South 4.6 mph - N/A   Overcast
10:52 AM 63.0 °F 60.1 °F 90% 30.00 in 2.5 mi South 4.6 mph - N/A   Overcast
11:20 AM 64.4 °F 60.8 °F 88% 29.99 in 10.0 mi South 5.8 mph - N/A   Overcast
11:52 AM 64.0 °F 60.1 °F 87% 30.00 in 7.0 mi South 4.6 mph - N/A   Overcast
12:52 PM 64.0 °F 59.0 °F 84% 29.99 in 10.0 mi South 4.6 mph - N/A   Overcast
1:59 PM 62.6 °F 57.2 °F 82% 29.97 in 10.0 mi SW 5.8 mph - N/A   Mostly Cloudy
2:06 PM 62.6 °F 59.0 °F 88% 29.97 in 10.0 mi SSW 4.6 mph - N/A   Mostly Cloudy
2:50 PM 60.8 °F 55.4 °F 82% 29.97 in 10.0 mi Variable 5.8 mph - N/A   Overcast
2:52 PM 61.0 °F 57.0 °F 87% 29.97 in 10.0 mi Variable 4.6 mph - N/A   Overcast
3:39 PM 62.6 °F 59.0 °F 88% 29.96 in 10.0 mi SSW 8.1 mph - N/A   Mostly Cloudy
3:44 PM 62.6 °F 59.0 °F 88% 29.96 in 9.0 mi Variable 5.8 mph - N/A   Overcast
4:15 PM 62.6 °F 59.0 °F 88% 29.94 in 10.0 mi SW 4.6 mph - N/A   Mostly Cloudy
4:52 PM 61.0 °F 55.9 °F 83% 29.94 in 10.0 mi South 4.6 mph - N/A   Mostly Cloudy
5:27 PM 60.8 °F 55.4 °F 82% 29.93 in 10.0 mi Calm Calm - N/A Thunderstorm Partly Cloudy
5:37 PM 59.0 °F 55.4 °F 88% 29.93 in 2.0 mi Calm Calm - 0.05 in Rain , Thunderstorm Rain
5:41 PM 57.2 °F 55.4 °F 94% 29.93 in 0.8 mi Calm Calm - 0.17 in Rain , Thunderstorm Heavy Rain
5:45 PM 57.2 °F 55.4 °F 94% 29.93 in 0.8 mi ESE 4.6 mph - 0.20 in Rain Heavy Rain
5:48 PM 59.0 °F 55.4 °F 88% 29.93 in 1.0 mi Calm Calm - 0.20 in Rain Light Rain
5:52 PM 59.0 °F 57.0 °F 93% 29.93 in 4.0 mi Calm Calm - 0.20 in Rain Light Rain
6:25 PM 57.2 °F 55.4 °F 94% 29.92 in 10.0 mi Calm Calm - 0.00 in   Overcast
6:52 PM 55.9 °F 55.0 °F 97% 29.93 in 9.0 mi SSE 5.8 mph - 0.00 in   Overcast
7:04 PM 55.4 °F 53.6 °F 94% 29.92 in 9.0 mi South 4.6 mph - N/A   Overcast
8:48 PM 53.6 °F 53.6 °F 100% 29.94 in 1.8 mi SW 5.8 mph - N/A   Overcast
8:52 PM 54.0 °F 53.1 °F 97% 29.94 in 0.8 mi SW 8.1 mph - N/A   Overcast
10:13 PM 51.8 °F 51.8 °F 100% 29.93 in 1.2 mi SW 8.1 mph 16.1 mph N/A   Overcast
10:28 PM 51.8 °F 51.8 °F 100% 29.93 in 0.8 mi SW 9.2 mph - N/A   Mist
10:52 PM 52.0 °F 52.0 °F 100% 29.93 in 1.0 mi SW 6.9 mph - N/A   Mist
11:06 PM 53.6 °F 53.6 °F 100% 29.92 in 2.5 mi SSW 8.1 mph - N/A   Overcast
11:18 PM 51.8 °F 51.8 °F 100% 29.92 in 1.5 mi SW 6.9 mph - N/A   Overcast
11:52 PM 52.0 °F 52.0 °F 100% 29.92 in 1.0 mi SSW 6.9 mph - N/A   Mist